SCP
0 0 0 0 0 0 0 0 0 0 0 0 0 0 0 0 0 0 0 0 0 0 0 0 0 0 0 0 0 0 0 0 0 0 0 0 0 0 0 0 0 0 0 0
0 0 0 0 0 0 0 0 0 0 0 0 0 0 0 0 0 0 0 0 0 0 0 0 0 0 0 0 0 0 0 0 0 0 0 0 0 0 0 0 0 0 0 0
0 0 0 0 0 0 0 0 0 0 0 0 0 -0 -0 0 0 0 0 0 0 0 0 0 0 0 0 0 0 0 0 0 0 0 0 0 0 0 0 0 0 0 0 0
0 0 0 0 0 0 0 0 0 0 0 0 0 -0 0 0 0 0 0 0 0 0 0 0 0 0 0 0 0 0 0 0 0 0 0 0 0 0 0 0 0 0 0 0
0 0 0 0 0 0 0 0 0 0 0 0 0 0 -0 0 0 0 0 0 0 0 0 0 0 -0 -0 -0 0 0 0 0 0 0 0 0 0 0 0 0 0 0 0 0
0 0 0 0 0 0 0 0 0 0 0 0 0 0 -0 0 0 0 0 0 0 0 0 0 0 0 0 0 0 0 0 0 0 0 0 0 0 0 0 0 0 0 0 0
0 -0 0 0 0 0 0 0 0 0 0 0 0 0 0 0 0 0 0 0 0 0 0 0 0 0 0 0 0 0 0 0 0 0 0 0 0 0 0 0 0 0 0 0
0 0 0 0 0 0 0 0 0 0 0 0 0 0 0 0 0 -0 0 0 0 0 0 0 0 0 0 0 0 0 0 0 0 0 0 0 0 0 0 0 0 0 0 0
0 0 0 0 0 0 0 0 0 0 0 0 0 0 0 0 0 0 0 0 0 0 0 0 0 0 0 0 0 0 0 0 0 0 0 0 0 0 0 0 0 0 0 0
0 0 0 0 0 0 0 0 0 0 0 0 0 0 0 0 0 0 0 0 0 0 0 0 0 0 0 0 0 0 0 0 0 0 0 0 0 0 0 0 0 0 0 0
0 0 0 0 0 0 0 0 0 0 0 0 0 0 0 -0 0 0 0 0 0 0 0 0 0 0 0 0 0 0 0 0 0 0 0 0 0 0 0 0 0 0 0 0
0 0 0 0 0 0 0 0 0 0 0 0 0 0 0 0 0 0 0 0 0 0 0 0 0 0 0 0 0 0 0 0 0 0 0 0 0 0 0 0 0 0 0 0
0 0 0 0 0 0 0 0 0 0 0 0 0 0 0 0 0 0 0 0 0 0 0 0 0 0 0 0 0 0 0 0 0 0 0 0 0 0 0 0 0 0 0 0
0 0 0 0 0 0 0 0 0 0 0 0 0 0 0 0 0 0 0 0 0 0 0 0 0 0 0 0 0 0 0 0 0 0 0 0 0 0 0 0 0 0 0 0
0 0 0 0 0 0 0 0 0 0 0 0 0 0 0 0 0 0 0 0 0 0 0 0 0 0 0 0 0 0 0 0 0 0 0 0 0 0 0 0 0 0 0 0
0 0 0 0 0 0 0 0 0 0 0 0 0 0 0 0 0 0 0 0 0 0 0 0 0 -0 -0 0 0 0 0 0 0 0 0 0 0 0 0 0 0 0 0 0
0 0 0 0 0 0 0 0 0 0 0 0 0 0 0 0 0 0 0 0 0 0 0 0 0 0 0 0 0 0 0 0 0 0 0 0 0 0 0 0 0 0 0 0
0 0 0 0 0 0 0 0 0 0 0 0 0 0 0 0 0 0 0 0 0 0 0 0 0 0 0 0 0 0 0 0 0 0 0 0 0 0 0 0 0 0 0 0
0 0 0 0 0 0 0 0 0 0 0 0 0 0 0 0 0 0 0 0 0 0 0 0 0 0 0 0 0 0 0 0 0 0 0 0 0 0 0 0 0 0 0 0
0 0 0 0 0 0 0 0 0 0 0 0 0 0 0 0 0 0 0 0 0 0 0 0 0 0 0 0 0 0 0 0 0 0 0 0 0 0 0 0 0 0 0 0
0 0 0 0 0 0 0 0 0 0 0 -0 0 0 0 0 0 0 0 0 0 0 0 0 0 0 0 0 0 0 0 0 0 0 0 0 0 0 0 0 0 0 0 0
0 0 0 0 0 0 0 0 0 0 0 0 0 0 0 0 0 0 0 0 0 0 0 0 0 0 0 0 0 0 0 0 0 0 0 0 0 0 0 0 0 0 0 0
0 0 0 0 0 0 0 0 0 0 0 0 0 0 0 0 0 0 0 0 0 0 0 0 0 0 0 0 0 0 0 0 0 0 0 0 0 0 0 0 0 0 0 0
0 0 0 0 0 0 0 0 0 0 0 0 0 0 0 0 0 0 0 0 0 0 0 0 0 0 0 0 0 0 0 0 0 0 0 0 0 0 0 0 0 0 0 0
0 0 0 0 0 0 0 0 0 0 0 0 0 0 0 0 0 0 0 0 0 0 0 0 0 0 0 0 0 0 0 0 0 0 0 0 0 0 0 0 0 0 0 0
0 0 0 0 0 0 0 0 0 0 0 0 0 0 0 0 0 0 0 0 0 0 0 0 0 0 0 0 0 0 0 0 0 0 0 0 0 0 0 0 0 0 0 0
Wind_Speed_500mb
10 7 24 41 29 13 23 24 24 15 7 12 16 26 24 36 33 35 36 36 38 51 50 50 57 58 57 60 59 67 69 67 62 65 66 65 66 61 54 52 52 49 47 44
10 14 13 28 38 32 25 27 24 14 17 4 13 27 20 25 34 45 50 48 49 45 49 50 54 57 66 68 67 63 68 67 68 69 67 69 65 63 48 47 49 50 48 43
13 9 17 32 39 33 13 20 16 11 11 8 11 19 22 22 47 52 57 56 59 62 59 58 67 68 73 76 72 66 69 68 69 70 66 65 61 63 58 55 52 51 48 46
22 26 29 19 30 28 26 15 8 8 10 7 16 11 9 15 32 28 58 64 67 64 71 69 73 72 68 72 69 66 66 68 69 67 70 70 71 70 65 57 55 52 50 50
24 26 27 34 24 24 10 18 12 7 6 10 11 5 11 17 13 25 38 62 75 75 68 72 76 77 70 64 67 66 66 70 73 73 72 71 71 71 64 57 58 55 54 52
24 13 22 44 30 31 3 19 7 3 4 13 19 18 11 13 16 12 22 51 66 71 74 68 73 74 74 67 68 69 70 71 74 76 76 76 75 74 68 65 63 59 58 53
18 24 25 15 13 14 13 26 7 6 9 12 6 19 27 13 17 15 18 38 32 66 67 71 67 74 73 72 72 68 70 74 76 78 80 81 81 78 73 68 66 61 61 59
23 17 35 27 31 23 28 24 10 14 10 6 3 14 11 21 40 48 23 16 20 16 27 63 65 64 68 67 68 68 69 70 74 77 80 82 83 82 81 77 73 67 65 61
29 16 40 28 14 26 27 27 5 11 6 5 10 12 15 28 15 11 10 13 20 32 28 37 55 50 56 61 65 66 66 67 72 77 80 81 81 83 84 82 77 73 68 65
16 10 38 12 12 16 27 17 12 3 9 9 10 10 13 9 18 14 14 27 32 31 31 35 44 47 63 65 67 66 68 73 77 80 81 84 83 78 77 76 76 73 71 68
23 8 8 14 20 44 11 25 13 10 7 8 2 11 10 18 16 17 10 9 13 21 23 29 38 40 37 44 48 50 56 61 65 67 71 77 81 77 75 74 73 70 63 61
11 10 20 49 11 6 28 13 25 10 13 6 6 11 6 2 17 22 10 5 6 9 11 18 30 38 39 38 40 41 42 44 49 50 55 64 70 72 73 72 69 67 65 61
15 11 12 13 15 6 28 30 48 9 5 15 10 10 2 11 12 14 4 1 2 3 5 16 26 32 29 33 33 32 34 34 34 38 43 49 53 56 58 60 63 62 58 57
30 9 12 22 34 13 25 42 23 35 6 7 29 5 9 10 12 10 5 9 7 5 5 5 7 11 15 19 23 27 28 29 28 28 31 36 39 40 42 43 46 49 50 52
17 7 2 2 13 26 31 40 42 39 46 15 22 29 18 16 16 13 15 12 10 6 4 7 6 3 15 24 28 29 29 28 26 27 29 29 30 32 35 37 37 40 44 47
10 16 9 2 9 20 23 40 40 42 52 45 43 20 19 39 2 24 20 18 20 15 8 4 5 19 22 28 31 32 32 29 29 31 31 30 31 32 32 31 33 36 40 45
36 19 24 16 10 16 3 53 52 52 42 56 47 61 20 18 17 28 26 26 32 28 23 31 39 27 32 34 31 36 33 33 34 35 35 35 35 33 31 31 36 41 44 46
37 23 9 8 11 11 13 39 44 51 49 54 57 14 23 35 48 34 37 42 45 36 39 44 47 41 33 33 30 31 34 36 36 38 42 42 39 37 36 39 44 46 47 47
23 19 8 12 18 8 13 16 44 32 45 51 57 38 30 26 16 31 36 47 50 57 64 57 53 47 43 39 37 33 35 38 37 40 51 52 48 44 44 47 49 49 48 47
6 20 10 11 10 23 16 24 41 12 47 28 40 31 30 40 26 23 53 63 65 57 59 58 54 48 43 39 42 44 44 48 50 52 57 59 54 51 51 53 54 51 47 45
19 15 25 11 8 15 15 21 52 25 17 34 64 51 55 26 44 34 33 35 30 42 47 48 44 39 38 40 45 48 52 56 56 56 55 55 54 54 51 51 54 50 50 44
20 23 12 10 8 20 17 36 42 15 8 20 16 33 36 51 49 38 39 33 32 34 31 31 27 26 30 33 36 40 45 47 47 47 48 51 54 54 53 52 54 51 47 43
10 19 18 28 20 7 26 20 39 30 24 20 22 16 12 16 20 20 24 24 21 19 14 11 12 13 15 19 24 30 39 43 44 48 52 54 54 55 54 51 49 46 43 39
7 14 8 12 13 14 36 16 21 13 16 20 14 17 18 23 21 20 24 22 18 14 12 10 8 7 9 14 16 20 23 27 30 32 34 35 37 39 40 39 36 34 34 37
7 16 11 1 4 8 12 34 28 25 19 21 18 16 16 17 21 22 26 21 16 12 10 9 7 5 6 5 2 3 8 12 17 19 20 21 20 19 18 20 23 27 29 33
9 4 10 13 10 6 5 5 12 19 20 19 23 24 22 22 26 31 30 26 22 20 18 17 18 15 14 14 14 11 8 7 7 5 3 1 3 6 10 16 19 22 26 31
Wind_Direction_500mb
301 151 216 204 203 192 172 195 207 208 178 165 232 251 244 244 218 225 232 237 240 219 222 224 219 214 219 222 223 219 221 223 219 220 222 226 232 238 236 234 238 247 253 250
271 256 259 222 205 218 174 204 213 216 127 133 270 260 245 232 238 227 221 227 231 227 215 217 225 219 220 221 225 222 220 219 220 224 227 231 235 243 244 237 239 244 250 251
188 245 226 234 206 205 181 211 192 193 140 218 291 275 242 242 241 234 238 236 228 225 221 216 219 226 220 222 225 222 219 222 223 225 228 230 234 241 240 236 238 241 244 248
211 242 255 216 230 210 190 197 196 155 129 243 156 283 259 228 231 217 225 229 231 228 223 217 219 221 223 227 227 226 221 221 226 228 230 231 234 236 241 243 244 247 246 247
199 190 217 251 220 233 204 148 172 153 187 331 232 268 256 224 217 209 216 224 228 229 229 221 217 219 229 230 226 227 225 224 225 227 233 236 238 242 248 248 249 250 249 247
169 159 198 227 207 199 18 117 115 82 161 251 210 215 223 229 233 229 218 226 229 228 228 230 223 226 228 230 229 226 227 228 228 229 234 239 243 244 244 246 247 251 249 249
173 208 178 187 203 202 184 139 133 189 201 233 139 221 246 255 237 233 226 226 230 228 227 226 228 226 230 230 231 230 230 232 233 233 237 241 244 244 247 250 250 249 248 248
156 185 178 177 200 181 197 182 158 178 194 219 341 240 248 243 245 258 257 260 241 218 224 226 224 228 230 229 231 233 232 236 235 238 242 243 244 243 245 247 248 248 251 253
178 181 178 178 182 157 191 214 153 101 30 73 207 262 294 263 245 249 242 219 235 241 241 217 220 224 230 233 235 235 236 239 242 242 244 244 244 243 242 243 244 247 251 253
167 123 185 166 135 193 198 154 215 260 152 231 256 228 235 248 226 205 197 222 239 244 239 234 231 230 231 235 237 239 240 241 243 243 240 244 245 243 243 242 243 244 246 250
170 116 138 140 198 189 175 193 212 142 190 178 214 252 219 237 206 190 154 204 227 216 225 232 236 235 231 230 232 236 237 240 243 243 241 239 242 243 242 242 242 243 239 239
212 90 153 189 173 201 217 214 193 179 221 174 139 265 231 81 114 123 98 321 284 263 241 208 213 228 235 232 231 237 243 244 244 243 239 237 238 239 238 239 238 237 238 233
177 138 115 124 272 244 208 214 203 158 89 212 139 250 242 115 123 133 116 23 305 255 218 205 216 229 236 234 240 247 245 242 238 233 231 233 235 237 236 237 238 236 235 235
151 146 167 185 212 112 195 211 215 206 168 181 217 97 175 177 182 234 277 161 151 166 186 178 219 235 228 228 234 242 244 241 236 231 229 229 231 235 237 239 241 239 237 237
141 116 267 190 172 183 189 199 204 208 227 199 217 215 240 179 163 149 139 144 150 138 147 105 70 314 259 251 251 246 242 237 231 227 228 227 228 232 234 235 239 242 243 245
120 190 181 275 192 174 181 195 201 208 222 233 238 249 215 244 107 204 240 261 242 215 195 152 22 331 297 281 263 252 240 230 224 224 225 225 229 231 236 240 243 245 247 246
177 156 184 212 142 99 296 201 198 210 216 217 227 230 177 226 229 233 244 262 272 270 256 257 281 297 288 290 277 256 246 238 231 232 229 229 235 240 245 247 250 250 248 247
175 165 169 159 143 177 248 183 206 212 218 223 236 202 200 222 238 240 238 243 250 257 273 274 278 274 279 290 280 257 249 246 243 243 239 237 241 247 250 254 255 252 249 248
186 174 125 156 199 299 273 228 193 190 235 228 235 232 223 204 242 255 236 239 245 257 262 266 273 282 286 278 274 268 256 251 250 252 244 243 246 251 256 258 259 255 252 247
188 184 178 163 175 203 257 165 188 147 266 212 221 223 219 221 238 248 243 241 247 254 261 267 269 273 272 265 263 262 257 252 252 258 252 247 250 254 259 262 261 261 255 249
165 169 191 183 192 267 228 183 149 171 258 204 212 208 209 205 224 244 236 236 243 250 260 265 271 272 269 263 260 256 254 256 257 257 259 257 257 262 265 266 262 259 255 248
166 167 181 191 189 257 165 150 171 174 206 89 155 211 232 241 245 230 233 248 263 267 263 266 270 268 263 257 251 246 246 247 245 245 250 253 256 261 263 262 258 254 247 243
186 196 167 186 203 215 184 184 193 176 195 179 166 157 175 222 221 218 230 240 242 239 233 236 254 254 259 263 260 253 252 254 254 256 254 255 259 261 263 260 254 248 242 241
242 192 163 107 202 178 186 201 202 186 152 153 161 171 174 169 175 198 222 224 207 212 222 234 251 259 260 262 267 266 258 251 250 251 254 258 258 256 254 252 246 244 244 242
202 153 162 277 96 81 191 211 212 213 203 182 173 172 176 178 167 179 178 175 173 171 150 138 126 120 135 109 64 294 279 267 257 247 246 249 251 252 251 239 227 229 234 243
6 17 183 226 14 9 82 293 200 203 197 197 206 182 173 177 166 163 162 161 154 148 134 136 124 116 103 91 82 71 61 50 35 28 65 132 211 219 210 215 229 235 249 255
Wind_Speed_850mb
10 7 24 41 29 13 23 24 24 15 7 12 16 26 24 36 33 35 36 36 38 51 50 50 57 58 57 60 59 67 69 67 62 65 66 65 66 61 54 52 52 49 47 44
10 14 13 28 38 32 25 27 24 14 17 4 13 27 20 25 34 45 50 48 49 45 49 50 54 57 66 68 67 63 68 67 68 69 67 69 65 63 48 47 49 50 48 43
13 9 17 32 39 33 13 20 16 11 11 8 11 19 22 22 47 52 57 56 59 62 59 58 67 68 73 76 72 66 69 68 69 70 66 65 61 63 58 55 52 51 48 46
22 26 29 19 30 28 26 15 8 8 10 7 16 11 9 15 32 28 58 64 67 64 71 69 73 72 68 72 69 66 66 68 69 67 70 70 71 70 65 57 55 52 50 50
24 26 27 34 24 24 10 18 12 7 6 10 11 5 11 17 13 25 38 62 75 75 68 72 76 77 70 64 67 66 66 70 73 73 72 71 71 71 64 57 58 55 54 52
24 13 22 44 30 31 3 19 7 3 4 13 19 18 11 13 16 12 22 51 66 71 74 68 73 74 74 67 68 69 70 71 74 76 76 76 75 74 68 65 63 59 58 53
18 24 25 15 13 14 13 26 7 6 9 12 6 19 27 13 17 15 18 38 32 66 67 71 67 74 73 72 72 68 70 74 76 78 80 81 81 78 73 68 66 61 61 59
23 17 35 27 31 23 28 24 10 14 10 6 3 14 11 21 40 48 23 16 20 16 27 63 65 64 68 67 68 68 69 70 74 77 80 82 83 82 81 77 73 67 65 61
29 16 40 28 14 26 27 27 5 11 6 5 10 12 15 28 15 11 10 13 20 32 28 37 55 50 56 61 65 66 66 67 72 77 80 81 81 83 84 82 77 73 68 65
16 10 38 12 12 16 27 17 12 3 9 9 10 10 13 9 18 14 14 27 32 31 31 35 44 47 63 65 67 66 68 73 77 80 81 84 83 78 77 76 76 73 71 68
23 8 8 14 20 44 11 25 13 10 7 8 2 11 10 18 16 17 10 9 13 21 23 29 38 40 37 44 48 50 56 61 65 67 71 77 81 77 75 74 73 70 63 61
11 10 20 49 11 6 28 13 25 10 13 6 6 11 6 2 17 22 10 5 6 9 11 18 30 38 39 38 40 41 42 44 49 50 55 64 70 72 73 72 69 67 65 61
15 11 12 13 15 6 28 30 48 9 5 15 10 10 2 11 12 14 4 1 2 3 5 16 26 32 29 33 33 32 34 34 34 38 43 49 53 56 58 60 63 62 58 57
30 9 12 22 34 13 25 42 23 35 6 7 29 5 9 10 12 10 5 9 7 5 5 5 7 11 15 19 23 27 28 29 28 28 31 36 39 40 42 43 46 49 50 52
17 7 2 2 13 26 31 40 42 39 46 15 22 29 18 16 16 13 15 12 10 6 4 7 6 3 15 24 28 29 29 28 26 27 29 29 30 32 35 37 37 40 44 47
10 16 9 2 9 20 23 40 40 42 52 45 43 20 19 39 2 24 20 18 20 15 8 4 5 19 22 28 31 32 32 29 29 31 31 30 31 32 32 31 33 36 40 45
36 19 24 16 10 16 3 53 52 52 42 56 47 61 20 18 17 28 26 26 32 28 23 31 39 27 32 34 31 36 33 33 34 35 35 35 35 33 31 31 36 41 44 46
37 23 9 8 11 11 13 39 44 51 49 54 57 14 23 35 48 34 37 42 45 36 39 44 47 41 33 33 30 31 34 36 36 38 42 42 39 37 36 39 44 46 47 47
23 19 8 12 18 8 13 16 44 32 45 51 57 38 30 26 16 31 36 47 50 57 64 57 53 47 43 39 37 33 35 38 37 40 51 52 48 44 44 47 49 49 48 47
6 20 10 11 10 23 16 24 41 12 47 28 40 31 30 40 26 23 53 63 65 57 59 58 54 48 43 39 42 44 44 48 50 52 57 59 54 51 51 53 54 51 47 45
19 15 25 11 8 15 15 21 52 25 17 34 64 51 55 26 44 34 33 35 30 42 47 48 44 39 38 40 45 48 52 56 56 56 55 55 54 54 51 51 54 50 50 44
20 23 12 10 8 20 17 36 42 15 8 20 16 33 36 51 49 38 39 33 32 34 31 31 27 26 30 33 36 40 45 47 47 47 48 51 54 54 53 52 54 51 47 43
10 19 18 28 20 7 26 20 39 30 24 20 22 16 12 16 20 20 24 24 21 19 14 11 12 13 15 19 24 30 39 43 44 48 52 54 54 55 54 51 49 46 43 39
7 14 8 12 13 14 36 16 21 13 16 20 14 17 18 23 21 20 24 22 18 14 12 10 8 7 9 14 16 20 23 27 30 32 34 35 37 39 40 39 36 34 34 37
7 16 11 1 4 8 12 34 28 25 19 21 18 16 16 17 21 22 26 21 16 12 10 9 7 5 6 5 2 3 8 12 17 19 20 21 20 19 18 20 23 27 29 33
9 4 10 13 10 6 5 5 12 19 20 19 23 24 22 22 26 31 30 26 22 20 18 17 18 15 14 14 14 11 8 7 7 5 3 1 3 6 10 16 19 22 26 31
Wind_Direction_850mb
301 151 216 204 203 192 172 195 207 208 178 165 232 251 244 244 218 225 232 237 240 219 222 224 219 214 219 222 223 219 221 223 219 220 222 226 232 238 236 234 238 247 253 250
271 256 259 222 205 218 174 204 213 216 127 133 270 260 245 232 238 227 221 227 231 227 215 217 225 219 220 221 225 222 220 219 220 224 227 231 235 243 244 237 239 244 250 251
188 245 226 234 206 205 181 211 192 193 140 218 291 275 242 242 241 234 238 236 228 225 221 216 219 226 220 222 225 222 219 222 223 225 228 230 234 241 240 236 238 241 244 248
211 242 255 216 230 210 190 197 196 155 129 243 156 283 259 228 231 217 225 229 231 228 223 217 219 221 223 227 227 226 221 221 226 228 230 231 234 236 241 243 244 247 246 247
199 190 217 251 220 233 204 148 172 153 187 331 232 268 256 224 217 209 216 224 228 229 229 221 217 219 229 230 226 227 225 224 225 227 233 236 238 242 248 248 249 250 249 247
169 159 198 227 207 199 18 117 115 82 161 251 210 215 223 229 233 229 218 226 229 228 228 230 223 226 228 230 229 226 227 228 228 229 234 239 243 244 244 246 247 251 249 249
173 208 178 187 203 202 184 139 133 189 201 233 139 221 246 255 237 233 226 226 230 228 227 226 228 226 230 230 231 230 230 232 233 233 237 241 244 244 247 250 250 249 248 248
156 185 178 177 200 181 197 182 158 178 194 219 341 240 248 243 245 258 257 260 241 218 224 226 224 228 230 229 231 233 232 236 235 238 242 243 244 243 245 247 248 248 251 253
178 181 178 178 182 157 191 214 153 101 30 73 207 262 294 263 245 249 242 219 235 241 241 217 220 224 230 233 235 235 236 239 242 242 244 244 244 243 242 243 244 247 251 253
167 123 185 166 135 193 198 154 215 260 152 231 256 228 235 248 226 205 197 222 239 244 239 234 231 230 231 235 237 239 240 241 243 243 240 244 245 243 243 242 243 244 246 250
170 116 138 140 198 189 175 193 212 142 190 178 214 252 219 237 206 190 154 204 227 216 225 232 236 235 231 230 232 236 237 240 243 243 241 239 242 243 242 242 242 243 239 239
212 90 153 189 173 201 217 214 193 179 221 174 139 265 231 81 114 123 98 321 284 263 241 208 213 228 235 232 231 237 243 244 244 243 239 237 238 239 238 239 238 237 238 233
177 138 115 124 272 244 208 214 203 158 89 212 139 250 242 115 123 133 116 23 305 255 218 205 216 229 236 234 240 247 245 242 238 233 231 233 235 237 236 237 238 236 235 235
151 146 167 185 212 112 195 211 215 206 168 181 217 97 175 177 182 234 277 161 151 166 186 178 219 235 228 228 234 242 244 241 236 231 229 229 231 235 237 239 241 239 237 237
141 116 267 190 172 183 189 199 204 208 227 199 217 215 240 179 163 149 139 144 150 138 147 105 70 314 259 251 251 246 242 237 231 227 228 227 228 232 234 235 239 242 243 245
120 190 181 275 192 174 181 195 201 208 222 233 238 249 215 244 107 204 240 261 242 215 195 152 22 331 297 281 263 252 240 230 224 224 225 225 229 231 236 240 243 245 247 246
177 156 184 212 142 99 296 201 198 210 216 217 227 230 177 226 229 233 244 262 272 270 256 257 281 297 288 290 277 256 246 238 231 232 229 229 235 240 245 247 250 250 248 247
175 165 169 159 143 177 248 183 206 212 218 223 236 202 200 222 238 240 238 243 250 257 273 274 278 274 279 290 280 257 249 246 243 243 239 237 241 247 250 254 255 252 249 248
186 174 125 156 199 299 273 228 193 190 235 228 235 232 223 204 242 255 236 239 245 257 262 266 273 282 286 278 274 268 256 251 250 252 244 243 246 251 256 258 259 255 252 247
188 184 178 163 175 203 257 165 188 147 266 212 221 223 219 221 238 248 243 241 247 254 261 267 269 273 272 265 263 262 257 252 252 258 252 247 250 254 259 262 261 261 255 249
165 169 191 183 192 267 228 183 149 171 258 204 212 208 209 205 224 244 236 236 243 250 260 265 271 272 269 263 260 256 254 256 257 257 259 257 257 262 265 266 262 259 255 248
166 167 181 191 189 257 165 150 171 174 206 89 155 211 232 241 245 230 233 248 263 267 263 266 270 268 263 257 251 246 246 247 245 245 250 253 256 261 263 262 258 254 247 243
186 196 167 186 203 215 184 184 193 176 195 179 166 157 175 222 221 218 230 240 242 239 233 236 254 254 259 263 260 253 252 254 254 256 254 255 259 261 263 260 254 248 242 241
242 192 163 107 202 178 186 201 202 186 152 153 161 171 174 169 175 198 222 224 207 212 222 234 251 259 260 262 267 266 258 251 250 251 254 258 258 256 254 252 246 244 244 242
202 153 162 277 96 81 191 211 212 213 203 182 173 172 176 178 167 179 178 175 173 171 150 138 126 120 135 109 64 294 279 267 257 247 246 249 251 252 251 239 227 229 234 243
6 17 183 226 14 9 82 293 200 203 197 197 206 182 173 177 166 163 162 161 154 148 134 136 124 116 103 91 82 71 61 50 35 28 65 132 211 219 210 215 229 235 249 255